Torna al catalogo

COSMOS 886 DEB

AttivoUNKNOWN
NORAD 9955·DEBRIS·🇷🇺 Russia

Lanciato Dec 27, 1976 da Baikonur Cosmodrome

Loading…

Prossimi Passaggi (prossime 24 ore)

TLE

AggiornatoSource: Space-Track

Epoca: Sep 14, 2026, 10:42 UTC

1 09955U 76126AV  26257.44639458 -.00000030  00000-0  22005-4 0  9992
2 09955  65.8438 268.6071 1058058 130.2174 239.6402 12.64077070   526

Traccia COSMOS 886 DEB in tempo reale con AllMySat

Download on the App Store